Change the Weather History Date:

Saturday, March 16, 2013

  Actual Average Record
Temperature  
Mean Temperature 44 °F -  
Max Temperature 48 °F 49 °F 55 °F (2003)
Min Temperature 41 °F 37 °F 28 °F (2002)
Degree Days  
Heating Degree Days 20    
Moisture  
Dew Point 41 °F    
Average Humidity 85    
Maximum Humidity 97    
Minimum Humidity 71    
Precipitation  
Precipitation 0.12 in - - ()
Sea Level Pressure  
Sea Level Pressure 29.99 in    
Wind  
Wind Speed 11 mph (SSW)    
Max Wind Speed 33 mph    
Max Gust Speed 41 mph    
Visibility 10 miles    
Events Rain    
Averages and records for this station are not official NWS values.
T = Trace of Precipitation, MM = Missing Value Source: NWS Daily Summary

Daily Weather History Graph

Daily Weather History Graph

Search for Another Location

Airport or City:

Trip Planner

Search our weather history database for the weather conditions in past years. The results will help you decide how hot, cold, wet, or windy it might be!

Date:

Astronomy

Mar. 16, 2013 Rise Set
Actual Time 7:21 AM PDT 7:18 PM PDT
Civil Twilight 6:49 AM PDT 7:49 PM PDT
Nautical Twilight 6:13 AM PDT 8:25 PM PDT
Astronomical Twilight 5:36 AM PDT 9:03 PM PDT
Moon 9:30 AM PDT (3/16) No Moon Set
Length of Visible Light 12h 59m
Length of Day
11h 57m
Waxing Crescent, 24% of the Moon is Illuminated
Mar 16
Waxing Crescent
Mar 19
First Quarter
Mar 27
Full
Apr 2
Last Quarter
Apr 10
New

Hourly Weather History & Observations

Time (PDT) Temp. Windchill Dew Point Humidity Pressure Visibility Wind Dir Wind Speed Gust Speed Precip Events Conditions
12:56 AM 48.0 °F - 45.0 °F 89% 30.13 in 10.0 mi South 5.8 mph - 0.00 in Rain Light Rain
1:56 AM 46.9 °F - 45.0 °F 93% 30.13 in 10.0 mi ESE 3.5 mph - 0.04 in Rain Light Rain
2:31 AM 46.4 °F 44.3 °F 44.6 °F 93% 30.11 in 6.0 mi SSE 4.6 mph - 0.00 in Rain Light Rain
2:56 AM 46.9 °F - 46.0 °F 97% 30.12 in 6.0 mi South 3.5 mph - 0.00 in Rain Light Rain
3:56 AM 46.9 °F - 45.0 °F 93% 30.10 in 6.0 mi SSE 4.6 mph - 0.00 in   Overcast
4:56 AM 46.9 °F - 45.0 °F 93% 30.08 in 10.0 mi South 4.6 mph - N/A   Overcast
5:31 AM 46.4 °F 45.2 °F 44.6 °F 93% 30.05 in 10.0 mi South 3.5 mph - 0.00 in Rain Light Rain
5:56 AM 46.9 °F - 45.0 °F 93% 30.06 in 10.0 mi SSE 4.6 mph - 0.00 in Rain Light Rain
6:56 AM 46.0 °F 43.9 °F 44.1 °F 93% 30.04 in 6.0 mi SSE 4.6 mph - 0.07 in Rain Light Rain
7:13 AM 46.4 °F 44.3 °F 44.6 °F 93% 30.02 in 10.0 mi ESE 4.6 mph - 0.00 in   Overcast
7:56 AM 46.0 °F 43.9 °F 44.1 °F 93% 30.03 in 10.0 mi ESE 4.6 mph - 0.00 in   Overcast
8:35 AM 46.4 °F 44.3 °F 44.6 °F 93% 30.01 in 10.0 mi ESE 4.6 mph - N/A   Overcast
8:56 AM 46.9 °F - 44.1 °F 90% 30.01 in 10.0 mi East 5.8 mph - N/A   Overcast
9:27 AM 46.4 °F 42.9 °F 44.6 °F 93% 30.00 in 8.0 mi East 6.9 mph - N/A   Overcast
9:56 AM 46.9 °F - 45.0 °F 93% 30.00 in 10.0 mi SE 4.6 mph - N/A   Overcast
10:56 AM 48.0 °F - 44.1 °F 86% 29.98 in 10.0 mi SSE 9.2 mph - N/A   Overcast
11:56 AM 48.9 °F - 44.1 °F 83% 29.96 in 10.0 mi SSE 5.8 mph - N/A   Overcast
12:25 PM 48.2 °F - 44.6 °F 87% 29.94 in 10.0 mi West 10.4 mph 16.1 mph 0.00 in Rain Light Rain
12:56 PM 46.0 °F 41.4 °F 44.1 °F 93% 29.94 in 10.0 mi West 9.2 mph - 0.00 in Rain Light Rain
1:56 PM 45.0 °F 36.2 °F 39.0 °F 80% 29.91 in 10.0 mi West 24.2 mph 31.1 mph 0.01 in Rain Light Rain
2:25 PM 44.6 °F 35.3 °F 37.4 °F 76% 29.89 in 10.0 mi West 26.5 mph 35.7 mph 0.00 in   Overcast
2:49 PM 44.6 °F 35.7 °F 35.6 °F 71% 29.88 in 10.0 mi West 24.2 mph 31.1 mph 0.00 in Rain Light Rain
2:56 PM 44.1 °F 35.0 °F 36.0 °F 73% 29.90 in 10.0 mi West 24.2 mph 32.2 mph 0.00 in Rain Light Rain
3:56 PM 43.0 °F 32.0 °F 36.0 °F 76% 29.88 in 10.0 mi West 33.4 mph 41.4 mph 0.00 in   Overcast
4:56 PM 44.1 °F 34.2 °F 36.0 °F 73% 29.89 in 10.0 mi West 28.8 mph 40.3 mph N/A   Mostly Cloudy
5:56 PM 43.0 °F 32.4 °F 36.0 °F 76% 29.90 in 10.0 mi West 31.1 mph 41.4 mph N/A   Mostly Cloudy
6:56 PM 42.1 °F 31.0 °F 35.1 °F 76% 29.91 in 10.0 mi West 32.2 mph 39.1 mph N/A   Scattered Clouds
7:56 PM 42.1 °F 32.6 °F 36.0 °F 79% 29.93 in 10.0 mi West 23.0 mph 28.8 mph N/A   Mostly Cloudy
8:56 PM 41.0 °F 31.4 °F 36.0 °F 82% 29.95 in 10.0 mi West 21.9 mph 29.9 mph N/A   Mostly Cloudy
9:56 PM 42.1 °F 33.9 °F 36.0 °F 79% 29.95 in 10.0 mi WSW 17.3 mph 24.2 mph N/A   Mostly Cloudy
10:30 PM 42.8 °F 33.5 °F 35.6 °F 76% 29.94 in 10.0 mi WNW 23.0 mph 31.1 mph N/A   Mostly Cloudy
10:56 PM 42.1 °F 31.7 °F 36.0 °F 79% 29.95 in 10.0 mi West 27.6 mph 33.4 mph N/A   Mostly Cloudy
11:12 PM 41.0 °F 30.2 °F 35.6 °F 81% 29.94 in 10.0 mi West 27.6 mph 35.7 mph N/A   Mostly Cloudy
11:56 PM 41.0 °F 30.2 °F 36.0 °F 82% 29.96 in 10.0 mi West 27.6 mph 36.8 mph N/A   Mostly Cloudy